Temp_Advection
nan nan nan nan nan nan nan nan nan nan nan nan nan nan nan nan nan nan nan nan nan nan nan nan nan nan nan nan nan nan nan nan nan nan nan nan nan nan nan nan nan nan nan nan nan nan nan nan nan nan nan nan nan nan nan nan nan nan nan nan nan nan nan nan nan nan nan nan nan
nan -0 -0 -0 -0 -0 -0 -0 -0 -0 -0 -0 -0 -0 -0 -0 -0 -0 -0 -0 -0 -0 -0 -0 -0 0 0 0 0 -0 -0 -0 -0 -0 -0 -0 -0 -0 -0 -0 -0 0 0 -0 -0 0 0 0 0 0 0 0 0 0 0 0 0 -0 0 0 0 0 0 0 0 0 0 0 nan
nan -0 -0 -0 -0 -0 -0 -0 -0 -0 -0 -0 -0 -0 -0 -0 -0 -0 -0 -0 -0 -0 -0 -0 -0 0 0 0 0 0 -0 -0 -0 -0 -0 -0 -0 -0 -0 -0 -0 0 0 0 -0 0 0 0 0 0 0 0 0 0 0 0 0 0 0 0 0 0 0 0 0 0 0 0 nan
nan -0 -0 -0 -0 -0 -0 -0 -0 -0 -0 -0 -0 -0 -0 -0 -0 -0 -0 -0 -0 -0 -0 -0 -0 0 0 0 0 0 -0 -0 -0 -0 -0 -0 -0 -0 -0 -0 -0 -0 0 0 0 0 0 0 0 0 0 0 0 0 0 0 0 0 0 0 0 0 0 0 0 0 0 0 nan
nan -0 -0 -0 -0 -0 -0 -0 -0 -0 -0 -0 -0 -0 -0 -0 -0 -0 -0 -0 -0 -0 -0 -0 -0 0 0 0 0 0 -0 -0 -0 -0 -0 -0 -0 -0 -0 -0 -0 -0 0 0 0 0 0 0 0 0 0 0 0 0 0 0 0 0 0 0 0 0 0 0 0 0 0 -0 nan
nan -0 -0 -0 -0 -0 -0 -0 -0 -0 -0 -0 -0 -0 -0 -0 -0 -0 -0 -0 -0 -0 -0 -0 -0 0 0 0 0 0 -0 -0 -0 -0 -0 -0 -0 -0 -0 -0 -0 -0 -0 -0 0 0 0 0 -0 0 0 0 0 0 0 0 0 0 0 0 0 0 0 0 0 0 0 -0 nan
nan -0 -0 -0 -0 -0 -0 -0 -0 -0 -0 -0 -0 -0 -0 -0 -0 -0 -0 -0 -0 -0 -0 -0 -0 0 0 0 0 0 -0 -0 -0 -0 -0 -0 -0 -0 -0 -0 -0 -0 -0 -0 0 0 0 -0 -0 -0 0 0 0 0 0 0 0 0 -0 0 0 0 0 0 0 0 -0 0 nan
nan -0 -0 -0 -0 -0 -0 -0 -0 -0 -0 -0 -0 -0 -0 -0 -0 -0 -0 -0 -0 -0 -0 -0 -0 0 0 0 0 0 -0 -0 -0 -0 -0 -0 -0 -0 -0 -0 -0 -0 -0 -0 -0 -0 0 0 0 -0 0 0 0 0 0 0 0 0 -0 0 0 0 0 0 0 0 0 0 nan
nan -0 -0 -0 -0 -0 -0 -0 -0 -0 -0 -0 -0 -0 -0 -0 -0 -0 -0 -0 -0 -0 -0 -0 -0 -0 0 0 0 0 -0 -0 -0 -0 -0 -0 -0 -0 -0 -0 -0 -0 -0 -0 -0 -0 0 0 -0 -0 0 0 0 0 0 0 0 -0 -0 -0 0 0 0 0 0 0 0 0 nan
nan -0 -0 -0 -0 -0 -0 -0 -0 -0 -0 -0 -0 -0 -0 -0 -0 -0 -0 -0 -0 -0 -0 -0 -0 0 -0 0 0 -0 -0 -0 -0 -0 -0 -0 -0 -0 0 -0 -0 -0 -0 -0 -0 -0 -0 -0 -0 -0 0 0 0 0 0 0 0 -0 -0 -0 0 0 0 0 0 0 0 -0 nan
nan -0 -0 -0 -0 -0 -0 -0 -0 -0 -0 -0 -0 -0 -0 -0 -0 -0 -0 -0 -0 -0 -0 -0 -0 -0 -0 -0 -0 -0 -0 -0 -0 -0 -0 0 0 0 0 -0 -0 -0 0 0 0 0 -0 -0 -0 -0 0 0 0 0 0 0 0 0 -0 -0 0 0 0 0 0 0 -0 -0 nan
nan -0 -0 -0 -0 -0 -0 -0 -0 -0 -0 -0 -0 -0 -0 -0 -0 -0 -0 -0 -0 -0 -0 -0 -0 -0 -0 -0 -0 0 0 0 -0 -0 -0 0 0 0 -0 -0 -0 0 0 0 0 0 -0 -0 -0 -0 0 0 0 0 0 0 0 0 -0 -0 0 0 0 0 0 -0 -0 -0 nan
nan -0 -0 -0 -0 -0 -0 -0 -0 -0 -0 -0 -0 -0 -0 -0 -0 -0 -0 -0 -0 -0 -0 -0 -0 -0 -0 -0 0 0 0 0 -0 -0 -0 -0 0 0 -0 -0 0 0 0 0 0 0 -0 -0 -0 -0 0 0 0 0 0 0 0 0 -0 -0 0 0 0 -0 -0 -0 -0 -0 nan
nan -0 -0 -0 -0 -0 -0 -0 -0 -0 -0 -0 -0 -0 -0 -0 -0 -0 -0 -0 -0 -0 -0 -0 0 -0 -0 -0 -0 -0 0 0 -0 -0 -0 -0 0 0 0 0 0 0 0 0 0 -0 -0 0 0 0 0 0 0 0 0 0 0 0 -0 -0 0 0 -0 -0 -0 -0 -0 -0 nan
nan 0 -0 -0 -0 -0 -0 -0 -0 -0 -0 -0 -0 -0 -0 -0 -0 -0 -0 -0 -0 -0 -0 -0 0 0 -0 0 -0 0 0 0 -0 -0 -0 0 0 0 0 0 0 0 0 0 0 0 0 0 0 0 0 0 0 0 0 0 0 0 -0 -0 0 -0 -0 -0 -0 -0 -0 -0 nan
nan 0 0 -0 -0 -0 -0 -0 -0 -0 -0 -0 -0 -0 -0 -0 -0 -0 -0 -0 -0 -0 -0 0 0 -0 -0 -0 -0 0 0 0 -0 -0 -0 -0 0 0 0 0 0 0 0 0 0 0 0 0 0 0 0 0 0 -0 -0 -0 -0 -0 -0 -0 -0 -0 -0 -0 -0 -0 -0 -0 nan
nan 0 0 -0 -0 -0 -0 -0 -0 -0 -0 -0 -0 -0 -0 -0 -0 -0 -0 -0 -0 -0 -0 0 0 -0 -0 -0 0 0 0 0 -0 -0 -0 0 0 0 0 0 0 0 0 0 0 0 0 0 0 0 0 0 0 -0 -0 -0 -0 -0 -0 -0 -0 -0 -0 -0 -0 -0 -0 -0 nan
nan 0 0 -0 0 0 -0 -0 -0 -0 -0 -0 -0 -0 -0 -0 -0 -0 -0 -0 -0 -0 -0 -0 -0 -0 -0 -0 0 0 0 0 -0 0 0 0 0 0 0 0 0 0 0 0 0 0 0 0 0 0 0 0 0 -0 -0 -0 -0 -0 -0 -0 -0 -0 -0 -0 -0 -0 -0 -0 nan
nan 0 0 0 0 0 0 -0 -0 -0 -0 -0 -0 -0 -0 -0 -0 -0 -0 -0 -0 -0 -0 -0 -0 -0 -0 -0 0 0 0 0 0 0 0 0 0 0 0 0 0 0 0 0 0 0 0 0 0 0 0 0 0 0 -0 -0 -0 -0 -0 -0 -0 -0 -0 -0 -0 -0 -0 -0 nan
nan 0 0 0 0 0 0 0 0 -0 -0 -0 -0 -0 -0 -0 -0 -0 -0 -0 -0 -0 -0 -0 -0 -0 -0 -0 0 0 0 0 0 0 0 0 0 0 0 0 0 0 0 0 0 0 0 0 0 0 0 0 0 0 -0 -0 -0 -0 -0 -0 -0 -0 -0 -0 -0 -0 -0 -0 nan
nan -0 0 0 0 0 -0 -0 -0 -0 -0 -0 -0 -0 -0 -0 -0 -0 -0 -0 -0 -0 -0 -0 -0 -0 -0 0 0 0 0 0 0 0 0 0 0 0 0 0 0 0 0 0 0 0 0 0 0 0 0 0 0 0 0 -0 -0 -0 -0 -0 -0 -0 -0 -0 -0 -0 -0 -0 nan
nan -0 0 0 0 0 -0 -0 -0 -0 -0 -0 -0 -0 -0 -0 -0 -0 -0 -0 -0 -0 -0 -0 -0 -0 -0 0 0 0 0 0 -0 -0 0 0 0 0 0 0 0 0 0 0 0 0 0 0 0 0 0 0 0 0 0 -0 -0 -0 -0 -0 -0 -0 -0 -0 -0 -0 -0 -0 nan
nan -1 -0 0 0 -0 -0 -0 -0 -0 -0 0 0 -0 -0 -0 -0 -0 -0 -0 -0 -0 -0 -0 -0 -0 0 0 0 0 0 0 -0 -0 0 0 0 0 0 0 0 0 0 0 0 0 0 0 0 0 0 0 0 0 0 0 -0 -0 -0 -0 -0 -0 -0 -0 -0 -0 -0 -0 nan
nan -1 -1 -0 0 -0 -0 -0 -0 -0 0 0 0 0 -0 -0 -0 -0 -0 -0 -0 -0 -0 -0 -0 -0 0 0 0 0 0 -0 -0 -0 -0 0 0 0 0 0 0 0 0 0 0 0 0 0 0 0 0 0 0 0 0 0 0 -0 -0 -0 -0 -0 -0 -0 -0 -0 -0 -0 nan
nan -1 -1 -0 -0 -0 -0 -0 -0 0 0 0 0 0 -0 -0 -0 -0 -0 -0 -0 -0 -0 -0 -0 -0 -0 0 0 0 0 -0 -0 -0 -0 -0 0 0 0 0 0 0 0 0 0 0 0 0 0 0 0 0 0 0 0 0 0 0 0 -0 -0 -0 -0 -0 -0 -0 -0 -0 nan
nan -1 -1 -1 -0 -0 -0 -0 0 0 0 0 0 0 -0 -0 -0 -0 -0 -0 -0 -0 -0 -0 -0 -0 -0 -0 -0 -0 -0 -0 -0 -0 -0 -0 -0 0 0 0 0 0 0 0 0 0 0 0 0 0 0 0 0 0 0 0 0 0 0 0 -0 -0 -0 -0 -0 -0 -0 -0 nan
nan -1 -1 -1 -0 -0 -0 -0 0 0 0 0 0 0 0 -0 -0 -0 -0 -0 -0 -0 -0 -0 -0 -0 -0 -0 -0 -0 -0 -0 -0 -0 0 0 0 -0 0 0 0 0 0 0 0 0 0 0 0 0 0 0 0 0 0 0 0 0 0 0 0 0 -0 -0 -0 -0 -0 -0 nan
nan -1 -1 -1 -0 -0 -0 -0 0 0 0 0 0 0 0 -0 -0 -0 -0 -0 -0 -0 -0 -0 -0 -0 -0 -0 -0 -0 -0 -0 -0 -0 0 0 0 0 0 0 0 0 0 0 0 0 0 0 0 0 0 0 0 0 0 0 0 0 0 0 0 0 0 -0 -0 -0 -0 -0 nan
nan -2 -1 -1 -1 -1 -0 -0 -0 0 0 0 0 0 0 -0 -0 -0 -0 -0 -0 -0 -0 0 -0 -0 -0 -0 -0 -0 -0 -0 -0 0 0 0 0 0 0 0 0 0 0 0 0 0 0 0 0 0 0 0 0 0 0 0 0 0 0 0 0 0 0 -0 -0 -0 -0 -0 nan
nan -1 -1 -1 -1 -1 -0 -0 -0 0 0 0 0 0 -0 -0 -0 -0 -0 -0 -0 -0 0 0 -0 -0 -0 -0 -0 -0 -0 -0 0 0 0 0 0 0 0 0 0 0 0 0 0 0 0 0 0 0 0 0 0 0 0 0 0 0 0 0 0 0 0 0 0 -0 -0 0 nan
nan -1 -1 -1 -1 -1 -1 -0 0 0 0 0 0 0 0 0 0 -0 -0 -0 0 0 -0 -0 -0 -0 -0 -0 -0 -0 -0 -0 -0 0 0 0 0 0 0 0 0 0 0 0 0 0 0 0 0 0 0 0 0 0 0 0 0 0 0 0 0 0 0 0 0 0 0 0 nan
nan -1 -1 -1 -1 -1 -1 -0 -0 0 0 0 0 0 0 0 0 0 0 0 -0 -0 -0 -0 -0 -0 -0 -0 -0 -0 -0 -0 0 0 0 0 0 0 0 0 0 0 0 0 0 0 0 0 0 0 0 0 0 0 0 0 0 0 0 0 0 0 0 0 0 0 0 0 nan
nan -1 -1 -1 -1 -1 -1 -1 -0 -0 -0 0 0 0 0 0 0 0 0 -0 -0 -0 -0 -0 0 0 0 -0 -0 -0 -0 0 0 0 0 0 0 0 0 0 0 0 0 0 0 0 0 0 0 0 0 0 0 0 0 0 0 0 0 0 0 0 0 0 0 0 0 0 nan
nan -0 -1 -1 -1 -1 -1 -1 -1 -0 -0 0 0 0 0 0 0 0 0 -0 -0 -0 -0 0 0 0 0 -0 -0 -0 -0 -0 0 0 0 0 0 0 0 0 0 0 0 0 0 0 0 0 0 0 0 0 0 0 0 0 0 0 0 0 0 0 0 0 0 0 0 0 nan
nan -0 -0 -1 -1 -1 -1 -1 -1 -1 -0 -0 -0 0 0 0 0 0 0 0 -0 -0 -0 0 0 -0 -0 -0 -0 -0 -0 -0 0 0 0 0 0 0 0 0 0 0 0 0 0 0 0 0 0 0 0 0 0 0 0 0 0 0 0 0 0 0 0 0 0 0 0 0 nan
nan -0 -0 -0 -0 -1 -1 -1 -1 -1 -0 -0 -0 0 0 0 0 0 0 0 -0 -0 -0 -0 -0 -0 -0 -0 -0 -0 -0 0 0 0 0 0 0 0 0 0 0 0 0 0 0 0 0 0 0 0 0 0 0 0 0 0 0 0 0 0 0 0 0 0 0 0 0 0 nan
nan -0 -0 -0 -0 -1 -1 -1 -1 -1 -1 -0 0 0 0 0 0 0 0 0 -0 -0 -0 -0 -0 -0 -0 0 0 0 0 0 0 0 0 0 0 0 0 1 1 0 0 0 0 0 0 0 0 0 0 0 0 0 0 0 0 0 0 0 0 0 0 0 0 0 0 0 nan
nan -0 -0 -0 -0 -0 -1 -1 -1 -1 -1 -0 0 0 0 0 0 0 0 -0 -0 -0 -0 -0 -0 0 0 0 0 0 0 0 0 0 0 0 0 0 1 1 0 0 0 0 0 0 0 0 0 0 0 0 0 0 0 0 0 0 0 0 0 0 0 0 0 0 0 0 nan
nan -0 -0 -0 -0 -0 -1 -1 -1 -1 -0 -0 0 0 0 0 0 0 0 0 0 0 0 0 0 0 0 0 -0 -0 -0 0 0 0 0 0 0 1 1 1 0 0 0 0 0 0 0 0 0 0 0 0 0 0 0 0 0 0 0 0 0 0 0 0 0 0 0 0 nan
nan -0 -0 0 -0 -0 -0 -1 -1 -1 -0 -0 -0 0 0 0 0 0 0 0 0 0 0 0 0 0 0 -0 -0 -0 -0 -0 -0 0 0 1 1 0 0 0 0 0 0 0 0 0 0 0 0 0 0 0 0 0 0 0 0 0 0 0 0 0 0 0 0 0 0 0 nan
nan nan nan nan nan nan nan nan nan nan nan nan nan nan nan nan nan nan nan nan nan nan nan nan nan nan nan nan nan nan nan nan nan nan nan nan nan nan nan nan nan nan nan nan nan nan nan nan nan nan nan nan nan nan nan nan nan nan nan nan nan nan nan nan nan nan nan nan nan
Wind_Speed
9 9 9 9 9 9 9 8 8 8 8 7 7 7 7 7 7 8 8 9 9 9 10 11 12 12 12 12 11 10 9 8 7 7 6 5 5 4 4 4 4 4 4 5 5 6 6 6 6 6 6 6 6 7 7 7 7 7 6 7 7 8 8 9 9 10 10 10 10
9 9 9 9 9 9 9 8 8 8 8 7 7 7 7 7 7 8 8 8 9 9 10 11 11 12 12 12 12 11 10 9 8 7 7 6 6 5 5 4 4 4 5 5 5 6 6 6 6 6 5 5 5 6 6 7 7 6 6 7 7 8 8 9 9 10 10 11 11
9 9 9 9 9 9 9 9 8 8 8 8 7 7 7 7 7 8 8 8 9 9 9 10 11 11 12 12 13 12 11 10 9 8 8 7 7 6 6 5 5 5 5 5 5 5 5 5 5 5 5 4 4 5 6 6 6 6 6 6 7 7 8 9 9 10 10 11 11
9 9 9 9 9 9 9 9 8 8 8 8 7 7 7 7 8 8 8 9 9 9 9 10 10 11 11 12 13 13 12 11 10 9 9 8 8 7 6 6 5 5 5 5 5 5 4 4 4 4 4 4 4 4 5 6 6 6 6 6 6 7 7 8 9 9 10 11 11
9 9 9 9 9 9 9 9 9 8 8 8 8 8 8 8 8 8 8 9 9 9 9 9 10 10 11 12 13 13 13 12 11 10 9 9 8 8 7 6 6 5 5 5 4 4 4 4 4 4 4 3 3 3 4 5 6 6 6 6 6 6 7 7 8 9 10 10 11
10 9 9 9 9 9 9 9 9 9 8 8 8 8 8 8 8 8 8 9 9 9 9 9 10 10 11 12 13 14 14 13 12 11 10 9 8 8 7 7 6 5 5 4 4 3 3 3 3 4 4 3 3 3 4 4 5 6 6 5 5 6 6 7 7 8 9 10 10
10 10 9 9 9 9 9 9 9 9 9 9 9 9 9 9 8 9 9 9 9 9 9 9 9 10 11 12 13 13 14 13 12 11 10 9 9 8 8 7 6 5 5 4 3 3 3 3 3 3 3 3 3 3 3 4 5 5 5 5 5 5 5 6 7 7 8 9 10
11 10 10 9 9 9 9 9 9 9 9 9 9 9 9 9 9 9 9 9 9 9 9 9 9 10 10 11 12 13 13 13 12 11 10 9 9 8 8 7 6 5 5 4 3 3 2 2 3 3 3 3 3 3 3 4 5 5 5 5 5 5 5 6 6 7 8 8 9
10 10 10 10 10 10 10 10 10 10 9 9 9 10 10 9 9 9 9 9 9 9 9 9 9 9 10 11 11 12 12 12 12 11 10 10 9 9 8 8 7 6 5 4 3 2 2 2 2 3 3 3 3 3 3 4 4 5 5 5 5 5 5 5 6 6 7 8 9
10 10 10 10 10 10 10 10 10 10 10 10 10 10 10 10 10 9 9 9 9 9 9 9 9 9 10 10 11 11 12 12 11 11 10 10 10 9 9 8 7 6 5 4 3 3 2 2 2 3 3 3 3 3 3 3 4 4 5 5 5 4 4 5 5 6 7 7 8
10 10 11 11 11 10 10 10 10 11 11 11 10 10 10 10 10 10 10 10 10 10 10 9 9 9 10 10 10 11 11 11 11 11 10 10 10 9 9 8 7 6 6 5 4 3 3 2 2 3 3 3 3 2 2 2 3 4 4 4 4 4 4 4 5 6 6 7 8
10 10 11 11 11 11 11 11 11 11 11 11 11 11 11 11 10 10 10 10 10 10 10 10 10 10 10 10 10 11 11 11 11 11 11 10 10 10 9 8 8 7 6 5 5 4 3 3 2 2 2 3 2 2 2 2 2 3 4 4 3 3 3 3 4 5 6 7 8
10 10 11 11 11 12 11 11 11 11 11 11 11 11 11 11 11 10 10 10 10 10 10 10 10 10 10 10 10 11 11 11 11 11 11 11 10 10 10 9 8 7 7 7 6 5 4 3 3 2 2 2 2 2 1 1 2 3 3 3 2 2 2 3 4 5 6 6 7
10 10 11 11 12 12 12 12 12 12 12 12 12 12 11 11 11 11 10 10 10 10 10 10 10 10 10 10 10 11 11 11 11 11 11 11 11 11 10 9 9 8 8 7 7 6 6 5 3 3 2 2 2 2 1 1 2 2 2 2 1 1 2 3 4 5 6 6 7
10 10 10 11 11 12 12 12 12 12 12 12 12 12 12 12 11 11 11 10 10 10 10 10 10 10 10 10 10 11 11 11 11 11 11 11 11 11 11 10 9 9 8 8 7 7 6 5 5 4 3 3 2 2 2 1 2 2 1 1 1 1 3 4 4 5 6 7 7
11 10 10 10 11 12 12 12 12 12 12 13 13 12 12 12 12 11 11 10 10 10 10 10 10 10 10 10 11 11 11 11 11 11 11 11 11 11 11 10 10 9 9 8 8 7 7 6 5 5 4 3 3 2 2 2 2 2 1 1 1 2 3 4 5 5 6 7 7
11 11 10 10 11 11 12 12 12 13 13 13 13 13 13 12 12 12 11 11 10 10 10 10 10 10 10 11 11 11 11 11 11 11 11 11 11 11 11 11 10 10 9 9 8 8 7 7 6 5 5 4 4 3 2 2 2 2 2 1 2 3 4 5 5 6 6 7 8
12 11 11 11 10 11 11 12 12 13 13 13 13 13 13 13 12 12 11 11 11 10 10 10 10 10 11 11 11 11 11 11 12 12 12 11 11 11 11 11 10 10 10 9 9 8 8 8 7 6 6 5 4 4 3 3 3 3 3 3 4 5 6 6 6 7 7 8 8
13 12 11 11 11 11 11 11 12 13 13 14 14 14 13 13 13 12 12 11 11 11 10 10 10 11 11 11 11 11 11 12 12 12 12 12 11 11 11 11 10 10 10 9 9 9 8 8 8 7 7 6 5 5 5 5 5 5 4 5 5 6 7 7 7 8 8 8 9
15 14 12 12 11 11 11 12 12 13 13 14 14 14 14 13 13 13 12 12 11 11 11 11 11 11 12 12 11 11 12 12 12 12 12 12 12 11 11 11 10 10 10 9 9 9 8 8 8 8 7 7 6 5 5 5 5 5 6 6 7 7 8 8 8 8 9 9 9
17 15 14 13 12 12 12 12 13 13 13 14 14 14 14 14 13 13 12 12 12 11 11 11 12 12 12 12 12 12 12 12 12 12 12 12 12 12 11 11 11 10 10 9 9 9 8 8 8 8 7 7 6 5 5 5 5 5 6 7 7 8 8 8 9 9 10 10 10
19 17 15 14 13 13 13 13 13 14 14 14 14 14 14 14 14 13 13 12 12 11 11 12 12 12 12 12 12 12 12 12 12 12 12 12 12 12 12 11 11 10 10 9 9 9 8 8 8 8 7 7 6 6 5 5 5 5 6 6 7 8 8 9 9 9 10 10 10
20 19 18 16 14 14 14 14 14 14 14 14 14 14 14 14 14 13 13 12 12 12 12 12 12 12 12 12 12 12 12 12 12 12 12 12 12 12 11 11 11 10 10 9 9 9 8 8 8 8 7 7 6 6 5 5 5 5 6 6 7 8 8 9 9 10 10 10 11
20 20 19 18 16 15 15 15 15 14 14 13 13 14 14 14 14 14 13 13 12 12 12 12 12 12 12 12 12 12 12 12 12 12 12 12 12 12 12 11 11 11 10 10 9 9 8 8 8 8 7 7 7 6 6 5 5 5 6 6 7 7 8 9 9 10 10 11 11
19 21 21 20 19 17 16 16 15 15 14 14 13 14 14 14 14 14 13 13 13 12 13 13 12 12 12 12 12 12 12 12 13 12 12 12 12 12 12 12 11 11 10 10 9 9 9 8 8 8 8 7 7 6 6 6 6 6 6 6 7 7 8 8 9 10 10 11 11
17 20 21 21 21 19 18 17 16 15 14 14 14 14 14 14 14 14 14 13 13 13 13 13 13 13 12 12 12 12 12 13 13 13 13 12 12 12 12 12 12 11 11 10 9 9 9 9 9 8 8 8 7 7 7 6 6 6 6 6 7 7 7 8 8 9 10 10 11
15 18 21 22 22 21 20 18 17 16 15 15 14 14 14 15 14 14 14 14 13 13 13 13 13 13 13 13 12 12 12 13 13 13 13 13 13 12 12 12 12 12 11 10 10 9 9 9 9 9 8 8 8 7 7 7 7 7 7 7 7 7 7 8 8 8 9 10 10
13 16 19 22 23 23 22 20 18 17 16 15 15 15 15 15 15 15 15 14 14 14 13 13 13 13 13 13 13 13 13 13 13 13 13 13 13 13 13 13 12 12 11 11 10 10 10 9 9 9 9 8 8 8 8 8 7 7 7 7 7 7 7 7 8 8 8 9 9
11 14 17 20 23 23 23 22 20 18 17 16 16 15 15 15 15 15 15 15 14 14 14 13 13 13 13 13 13 13 13 13 13 13 13 13 13 13 13 13 12 12 11 11 10 10 10 10 10 10 9 9 9 8 8 8 8 8 8 8 7 7 7 7 8 8 8 8 8
11 12 15 19 22 23 24 23 22 20 18 17 17 16 16 16 16 16 15 15 15 14 14 13 13 13 13 13 14 14 14 13 13 13 13 13 13 13 13 13 12 12 11 11 11 10 10 10 10 10 10 9 9 9 9 9 8 8 8 8 8 8 7 7 7 7 8 8 8
12 12 14 17 20 23 24 24 23 22 20 18 18 17 17 17 16 16 16 15 15 14 14 14 14 14 14 14 14 14 14 14 14 14 14 13 13 13 13 13 12 12 11 11 11 11 11 11 11 11 10 10 10 9 9 9 9 9 8 8 8 8 7 7 7 7 7 7 7
13 12 13 15 18 21 23 25 24 23 21 20 19 18 18 17 17 16 16 15 15 15 15 14 14 14 14 14 14 14 14 14 14 14 14 14 14 14 13 13 13 12 12 11 11 11 11 11 11 11 11 10 10 10 10 9 9 9 9 9 8 8 8 7 7 7 7 7 7
14 13 12 14 16 19 22 24 25 24 23 21 20 19 18 18 17 16 16 16 16 16 15 15 15 14 14 14 14 15 15 14 14 14 14 14 14 14 14 14 13 13 12 12 11 11 11 11 11 11 11 11 11 10 10 10 9 9 9 9 8 8 8 7 7 7 7 7 6
14 13 12 13 15 18 21 23 25 25 24 23 21 20 19 18 17 17 17 16 16 16 16 15 15 15 15 15 15 15 15 15 15 15 15 14 14 14 14 14 14 13 13 12 12 12 12 12 12 12 11 11 11 11 11 10 10 10 9 9 9 8 8 8 7 7 7 7 6
15 13 12 12 14 16 19 22 24 25 25 24 22 21 20 19 18 17 17 17 17 17 16 16 15 15 16 16 16 16 15 15 15 15 15 15 15 14 14 14 14 14 13 13 13 13 12 12 12 12 12 12 11 11 11 11 10 10 10 9 9 9 9 8 8 8 7 7 6
15 14 13 12 13 15 18 21 24 25 26 25 23 22 20 19 18 18 17 17 17 17 17 16 16 16 16 16 16 16 16 16 16 15 15 15 15 15 14 14 14 14 14 14 13 13 13 13 12 12 12 12 12 11 11 11 11 10 10 10 9 9 9 9 8 8 8 7 7
15 14 13 13 13 15 18 20 23 25 26 25 24 23 21 20 19 18 18 18 18 18 17 17 16 16 16 16 16 16 16 16 16 16 16 15 15 15 15 14 14 14 14 14 14 14 14 13 13 13 12 12 12 11 11 11 11 11 10 10 10 10 9 9 9 8 8 8 7
14 14 13 13 14 15 17 20 23 24 25 26 25 23 22 20 19 18 18 18 18 18 17 17 16 16 16 16 16 16 16 16 16 16 16 16 16 15 15 14 14 15 15 15 15 15 14 14 13 13 13 12 12 12 11 11 11 11 11 11 10 10 10 9 9 9 8 8 7
14 13 13 13 14 15 17 20 22 24 25 26 25 24 23 21 20 19 18 18 18 18 17 17 16 16 15 16 16 16 16 16 17 17 17 16 16 16 15 14 15 15 16 16 16 16 15 15 14 13 13 13 12 12 12 11 11 11 11 11 10 10 10 9 9 9 8 8 7
13 13 13 13 13 15 17 20 22 23 25 25 25 25 23 22 20 19 18 18 18 18 17 17 16 16 16 16 16 16 16 17 17 17 17 17 16 16 15 15 15 16 16 17 17 16 16 15 15 14 13 13 13 12 12 12 12 11 11 11 10 10 10 9 9 8 8 8 7
13 13 13 13 13 15 17 19 21 22 24 25 25 25 24 22 21 20 19 18 18 18 18 17 17 16 16 16 17 17 17 17 17 17 17 17 17 16 15 15 15 16 17 17 17 17 17 16 15 14 14 13 13 13 12 12 12 12 11 11 11 10 10 9 9 8 8 8 7
Wind_Direction
258 257 255 254 253 251 249 247 247 247 246 246 246 247 247 248 251 253 255 255 253 251 248 245 241 237 233 227 224 220 213 202 190 185 187 193 201 210 221 235 250 265 279 292 302 309 314 315 315 316 321 332 345 349 349 348 353 3 16 26 30 32 32 31 29 27 25 23 21
258 256 255 253 252 250 248 247 246 245 244 243 243 243 244 246 248 251 254 254 254 251 249 246 242 238 233 228 225 223 219 211 200 194 195 200 207 215 224 235 248 262 274 285 296 304 309 311 309 309 313 325 341 345 345 345 351 2 14 23 28 32 34 33 32 31 30 29 26
258 256 254 253 252 250 248 246 245 244 243 242 241 240 242 243 246 249 252 254 252 251 250 247 243 237 232 229 227 225 223 218 209 203 202 205 210 216 225 235 247 259 269 279 289 297 303 304 301 300 304 316 332 339 338 339 347 358 9 18 23 29 32 33 33 33 33 32 30
257 256 254 253 251 249 247 245 244 243 243 242 240 240 240 241 244 246 249 251 251 251 250 248 243 237 232 229 227 227 225 222 216 211 208 208 211 216 223 233 243 254 265 274 282 289 293 294 292 292 296 307 323 330 331 334 341 349 359 8 16 23 27 30 31 32 33 34 31
258 255 254 252 250 248 247 245 245 244 243 243 241 240 239 239 240 242 245 247 249 249 248 246 243 237 232 229 228 227 226 224 220 215 211 210 211 215 220 228 237 248 258 267 274 280 281 282 282 284 289 299 309 318 324 329 333 338 345 357 7 14 20 25 27 29 31 32 31
259 257 255 253 251 249 248 245 244 244 243 243 243 242 241 239 238 238 240 242 245 245 245 244 241 237 233 230 228 227 226 225 222 218 214 211 210 212 215 221 228 238 248 256 263 267 267 268 272 278 285 292 300 309 317 323 325 327 333 344 354 3 12 19 22 24 27 29 29
259 257 256 255 253 250 248 246 244 243 242 243 243 243 242 240 237 236 236 237 239 240 242 242 240 237 234 231 228 227 226 225 222 219 214 210 207 207 208 210 215 222 231 241 248 249 252 257 264 274 283 289 293 299 308 312 314 316 322 332 341 351 2 12 16 19 22 25 25
259 257 256 255 253 251 249 246 244 243 242 242 243 243 242 241 238 236 234 234 236 237 238 239 239 237 234 231 229 227 226 225 222 217 212 205 201 199 198 200 203 208 215 221 227 231 237 249 261 271 279 285 288 293 298 303 305 307 313 322 330 340 352 3 10 15 18 21 22
260 258 256 254 253 251 249 246 244 243 243 243 243 243 242 241 238 236 234 233 234 234 235 236 236 235 234 231 229 227 225 223 221 215 207 200 194 191 190 191 193 195 198 202 205 210 219 236 254 267 273 277 283 287 291 296 299 302 307 314 323 334 346 357 6 12 16 19 22
260 257 255 253 251 250 248 246 244 243 243 243 243 242 242 240 238 236 234 233 232 233 234 235 234 233 232 230 228 226 224 222 218 212 205 196 190 186 186 187 186 183 182 184 186 192 200 214 240 258 267 273 277 282 286 289 294 297 303 310 319 332 346 356 5 13 19 22 25
259 256 254 252 250 249 248 246 245 244 243 243 243 242 242 240 238 237 234 233 233 233 233 233 232 231 231 229 227 225 223 220 216 211 204 196 189 186 186 186 183 177 172 172 177 181 185 192 221 248 262 271 275 276 278 284 290 294 299 307 317 332 349 2 9 18 24 27 30
260 256 253 250 249 248 246 245 245 244 243 243 243 242 242 240 239 237 235 234 234 233 233 231 231 230 229 228 227 224 222 218 215 210 204 197 191 188 186 186 181 174 169 169 174 175 174 176 199 229 251 263 269 267 265 271 282 287 294 304 315 333 355 11 20 27 30 34 36
261 257 253 251 249 247 245 244 243 243 243 243 242 242 242 241 239 238 236 236 235 233 232 230 229 229 229 228 226 224 221 217 213 209 204 198 192 188 186 183 178 172 170 170 172 171 168 166 177 199 225 244 253 251 246 254 267 276 286 299 315 342 10 25 33 38 40 41 42
260 257 254 252 249 247 245 244 242 242 242 242 242 242 242 242 241 239 238 237 234 233 231 229 229 229 228 228 226 224 220 217 213 208 204 198 193 188 184 180 177 174 172 171 171 168 162 158 164 176 195 215 225 228 226 234 251 266 278 293 324 14 36 44 47 49 51 51 49
258 256 254 252 250 247 245 244 243 242 242 243 243 242 242 243 242 241 239 237 235 232 230 229 229 229 228 227 226 224 220 216 212 208 203 198 193 187 183 179 176 175 174 172 169 164 159 155 157 162 172 187 200 208 208 212 228 248 262 285 8 50 60 61 60 59 59 58 56
255 254 253 251 249 247 246 244 243 242 242 243 243 243 243 244 243 242 240 238 235 232 230 229 229 229 228 227 226 224 221 216 212 208 203 198 193 187 183 180 178 176 175 172 167 160 156 155 154 156 161 169 180 189 193 192 200 215 223 219 95 80 77 73 70 68 67 65 62
251 250 249 248 247 246 246 245 244 243 243 243 243 243 244 244 244 243 241 239 236 233 231 229 229 229 228 227 225 223 220 216 213 209 204 200 194 188 184 181 179 178 175 171 166 159 155 155 155 154 154 156 161 167 170 169 174 181 181 156 113 94 87 82 79 76 73 71 68
247 247 246 244 243 243 244 244 243 243 244 244 244 243 244 244 244 243 241 238 236 233 232 231 230 229 228 226 224 222 219 216 213 210 206 200 195 190 186 183 182 179 176 172 166 160 155 154 154 153 150 146 146 146 146 148 154 158 155 136 111 99 92 89 86 83 80 76 73
244 244 243 241 240 239 239 240 241 242 243 243 243 243 243 244 244 243 241 238 236 234 233 232 231 229 227 225 223 220 218 216 213 210 206 202 196 191 187 185 183 180 177 172 167 163 159 156 154 151 147 142 139 137 136 139 143 142 136 122 108 100 96 93 91 88 85 81 78
240 241 240 239 237 236 235 236 237 238 240 241 242 243 243 244 244 242 241 239 236 234 233 232 231 229 226 223 221 219 217 215 213 210 207 202 197 193 189 185 183 181 178 174 169 164 162 159 155 151 146 142 139 135 132 131 131 128 121 113 105 101 98 96 93 90 87 85 83
238 237 237 237 235 233 233 232 233 235 237 239 241 242 243 244 243 243 241 239 237 235 234 233 231 229 225 222 219 217 216 215 213 210 206 202 197 193 189 186 183 181 179 175 169 165 163 160 156 152 147 142 141 137 132 127 124 119 114 109 105 102 99 97 94 91 89 87 85
239 237 235 234 233 232 231 230 231 231 233 235 238 241 243 243 244 243 242 239 237 236 236 234 231 228 224 220 218 216 215 214 212 209 205 201 197 193 189 186 184 182 179 175 170 166 163 161 157 152 148 144 142 138 133 129 126 121 115 110 106 102 100 98 95 92 90 88 85
244 239 235 233 232 231 230 229 229 229 230 233 236 239 242 243 243 243 241 240 239 237 236 234 231 227 224 220 218 215 215 213 212 209 205 200 196 192 188 186 184 182 180 176 171 167 163 161 157 153 149 146 144 141 138 134 132 127 121 115 110 105 101 98 96 94 91 88 86
248 243 238 233 231 230 229 228 228 227 227 229 233 237 240 242 242 242 241 240 239 238 236 234 230 228 224 222 218 216 214 213 211 208 204 200 195 191 187 185 184 182 180 177 173 169 165 161 157 153 150 148 146 145 144 142 138 133 126 118 113 107 103 100 97 95 92 90 88
251 246 241 236 232 230 229 228 226 225 225 226 229 233 237 239 240 240 240 239 238 237 236 233 230 228 225 223 220 217 214 212 211 208 204 200 195 190 186 183 182 181 179 177 173 170 166 163 159 155 152 151 150 150 150 148 145 138 130 122 115 110 106 102 99 96 94 92 90
254 248 244 239 235 231 229 227 225 223 222 222 225 229 233 236 237 237 238 237 237 236 234 232 230 228 225 223 221 218 215 213 210 208 204 200 195 190 186 183 182 180 178 176 173 170 167 164 160 157 155 154 154 153 153 151 148 142 134 125 120 113 109 104 101 98 96 93 91
259 250 245 242 238 234 231 228 224 222 220 219 221 225 229 232 234 235 236 236 235 234 233 231 229 227 225 223 221 218 216 213 211 208 205 200 196 191 187 184 182 179 177 174 173 171 168 164 161 159 158 156 156 155 154 151 148 144 137 130 124 119 113 108 104 101 98 95 93
268 253 247 243 240 236 233 229 225 221 218 217 218 222 226 229 232 233 234 234 233 232 231 230 229 227 225 223 221 218 216 214 211 208 205 201 196 192 188 185 182 179 176 174 172 170 168 165 163 161 160 158 158 157 155 152 149 145 139 134 130 125 120 114 110 106 102 98 95
282 261 249 243 240 237 235 231 227 223 219 216 217 219 222 226 229 230 231 231 231 231 230 229 228 226 224 223 221 218 216 214 211 209 205 202 198 193 190 186 183 179 176 173 172 170 169 166 164 163 162 161 159 157 156 153 150 146 143 139 135 130 125 120 116 111 107 103 99
295 271 254 245 240 238 235 233 229 225 220 217 216 217 220 223 226 228 229 229 229 229 228 227 227 225 224 222 221 218 216 214 211 208 205 202 199 195 191 187 183 180 177 174 172 171 169 168 166 165 163 162 161 159 156 154 152 149 147 143 140 136 132 126 121 117 113 109 105
305 284 262 247 241 237 235 233 230 227 223 219 216 216 217 220 223 225 227 228 229 228 227 226 225 224 223 222 220 218 216 214 211 208 205 203 199 196 193 189 184 181 178 176 173 172 170 169 168 166 165 163 161 160 158 156 154 152 150 147 144 141 137 133 128 123 119 115 110
310 293 270 252 242 237 235 233 231 228 225 221 218 215 216 218 221 224 226 227 228 227 226 225 224 223 222 221 220 218 216 214 211 209 205 203 200 197 194 190 186 183 180 178 175 173 172 170 169 168 166 164 163 162 160 159 157 155 153 151 149 146 143 138 134 129 124 119 115
309 296 277 257 244 238 234 232 230 228 226 224 220 217 216 216 219 221 224 225 226 226 225 224 223 222 222 221 219 218 216 214 211 208 206 203 201 198 194 191 188 185 182 180 177 175 173 172 171 169 168 166 166 165 164 162 161 159 157 155 154 151 147 144 139 133 128 122 118
307 297 281 261 246 238 233 231 229 228 226 225 222 219 216 216 217 219 221 223 224 225 224 223 222 221 220 219 218 217 215 213 211 208 206 203 201 198 195 193 190 187 185 182 179 177 175 174 172 171 170 169 169 167 166 164 164 163 161 159 157 155 152 149 143 137 132 127 121
304 296 282 264 248 238 232 229 228 226 226 225 223 221 218 216 216 217 220 222 224 224 224 223 222 220 220 218 217 216 215 213 210 208 205 204 201 199 196 194 191 189 186 183 180 178 176 175 174 173 172 172 171 170 168 167 166 165 164 162 160 158 156 152 147 142 137 131 126
300 294 282 266 250 238 231 228 226 225 225 225 224 222 219 217 216 216 218 221 223 224 224 223 222 221 220 219 218 217 215 213 210 208 205 203 201 199 197 195 193 191 188 185 181 179 177 176 175 174 174 174 173 172 170 169 168 167 166 164 162 159 157 154 149 145 140 135 130
295 290 281 267 252 239 230 226 224 224 223 223 223 222 220 218 216 216 217 219 222 223 223 222 222 221 220 219 219 218 216 214 211 208 205 203 201 199 198 195 194 192 189 186 182 179 178 177 176 176 176 176 175 173 172 171 170 169 167 165 162 160 157 154 150 146 142 137 132
290 286 279 268 254 240 231 226 223 222 222 222 222 222 221 219 217 216 217 219 221 223 223 222 222 221 221 220 220 219 217 215 212 209 206 203 201 199 197 196 195 193 190 187 183 180 178 177 177 178 178 178 176 175 174 173 172 170 168 166 163 160 157 154 150 146 141 136 131
284 281 276 267 256 244 233 226 222 220 219 219 220 220 220 219 218 216 217 219 221 223 223 223 222 221 221 221 221 219 218 216 213 210 206 203 201 198 196 195 194 192 190 186 183 180 178 178 178 179 179 178 177 176 175 174 173 171 169 166 164 161 158 155 151 146 141 136 131
279 275 271 265 257 246 236 228 222 219 217 216 217 218 219 219 218 217 217 218 221 222 223 223 222 221 221 221 220 219 218 216 214 211 208 204 201 199 196 194 192 190 188 185 183 180 179 178 179 179 179 178 177 176 176 175 173 171 169 167 165 162 159 156 153 147 142 137 132
276 271 267 262 256 248 239 231 224 220 216 214 214 216 217 218 218 217 217 218 220 221 222 222 221 220 219 219 219 218 217 216 214 212 209 205 202 200 197 194 191 188 186 184 182 180 179 178 179 179 178 178 177 176 176 175 174 171 169 167 166 164 160 157 154 148 143 137 133
Height
1455 1455 1455 1455 1455 1455 1455 1454 1454 1454 1454 1454 1454 1454 1454 1454 1454 1454 1454 1454 1454 1454 1454 1454 1454 1454 1455 1455 1455 1455 1455 1455 1455 1455 1455 1456 1456 1457 1457 1457 1457 1458 1458 1458 1458 1458 1458 1457 1457 1457 1457 1457 1456 1456 1456 1456 1455 1455 1454 1454 1453 1452 1451 1451 1450 1449 1449 1448 1447
1454 1454 1454 1454 1454 1454 1454 1454 1454 1454 1454 1454 1454 1454 1454 1453 1453 1453 1453 1453 1453 1453 1453 1453 1453 1453 1454 1454 1455 1455 1455 1455 1455 1455 1455 1455 1456 1456 1456 1457 1457 1457 1457 1457 1457 1457 1457 1457 1457 1457 1456 1456 1456 1456 1456 1456 1455 1455 1454 1454 1453 1452 1451 1451 1450 1450 1449 1448 1447
1453 1453 1453 1453 1453 1453 1453 1453 1453 1453 1453 1453 1453 1453 1453 1453 1453 1453 1452 1452 1452 1452 1452 1452 1452 1453 1453 1453 1454 1454 1454 1454 1454 1455 1455 1455 1455 1456 1456 1456 1456 1456 1456 1456 1456 1456 1456 1456 1456 1456 1456 1456 1456 1456 1456 1456 1455 1455 1454 1454 1453 1452 1452 1451 1450 1450 1449 1448 1447
1452 1452 1452 1452 1452 1452 1452 1452 1452 1452 1452 1452 1452 1452 1452 1452 1452 1452 1452 1452 1452 1452 1452 1452 1452 1452 1452 1453 1453 1453 1453 1454 1454 1454 1454 1455 1455 1455 1455 1455 1455 1456 1456 1456 1456 1456 1456 1456 1456 1456 1456 1456 1456 1456 1455 1455 1455 1455 1454 1454 1453 1452 1452 1451 1450 1450 1449 1448 1447
1451 1451 1451 1451 1451 1451 1451 1451 1451 1451 1451 1451 1452 1452 1452 1452 1452 1451 1451 1451 1451 1451 1451 1451 1451 1451 1452 1452 1452 1452 1453 1453 1453 1454 1454 1454 1454 1455 1455 1455 1455 1455 1455 1455 1455 1455 1455 1455 1455 1455 1455 1455 1455 1455 1455 1455 1455 1455 1454 1454 1453 1452 1452 1451 1450 1450 1449 1448 1447
1450 1450 1450 1450 1450 1450 1450 1450 1450 1450 1450 1451 1451 1451 1451 1451 1451 1451 1451 1450 1450 1450 1450 1450 1450 1451 1451 1451 1451 1451 1452 1452 1453 1453 1453 1453 1454 1454 1454 1454 1454 1455 1455 1455 1455 1455 1455 1455 1455 1455 1455 1455 1455 1455 1455 1455 1455 1454 1454 1454 1453 1452 1452 1451 1450 1450 1449 1448 1447
1450 1450 1450 1450 1449 1449 1449 1449 1449 1450 1450 1450 1450 1450 1450 1450 1450 1450 1450 1450 1450 1450 1450 1450 1450 1450 1450 1450 1450 1451 1451 1451 1452 1452 1452 1453 1453 1453 1453 1454 1454 1454 1454 1454 1454 1454 1455 1455 1455 1455 1455 1455 1455 1455 1455 1455 1454 1454 1454 1454 1453 1453 1452 1451 1450 1450 1449 1448 1448
1449 1449 1449 1449 1449 1448 1448 1448 1449 1449 1449 1449 1449 1449 1450 1450 1449 1449 1449 1449 1449 1449 1449 1449 1449 1450 1450 1450 1450 1450 1450 1451 1451 1451 1452 1452 1452 1452 1453 1453 1453 1453 1453 1454 1454 1454 1454 1454 1454 1454 1454 1454 1454 1454 1454 1454 1454 1454 1454 1453 1453 1452 1452 1451 1450 1450 1449 1449 1448
1448 1448 1448 1448 1448 1448 1448 1448 1448 1448 1448 1448 1448 1449 1449 1449 1449 1449 1449 1449 1449 1449 1449 1449 1449 1449 1449 1449 1449 1450 1450 1450 1450 1451 1451 1451 1451 1452 1452 1452 1452 1452 1453 1453 1453 1453 1453 1454 1454 1454 1454 1454 1454 1454 1454 1454 1454 1454 1453 1453 1453 1452 1452 1451 1450 1450 1449 1449 1448
1447 1447 1447 1447 1447 1447 1447 1447 1447 1447 1447 1447 1448 1448 1448 1448 1448 1448 1448 1448 1448 1448 1448 1448 1448 1448 1448 1448 1449 1449 1449 1449 1450 1450 1450 1450 1451 1451 1451 1451 1451 1452 1452 1452 1452 1453 1453 1453 1453 1453 1453 1453 1453 1453 1453 1453 1453 1453 1453 1453 1452 1452 1452 1451 1450 1450 1449 1449 1448
1446 1446 1446 1446 1446 1446 1446 1446 1446 1446 1446 1447 1447 1447 1447 1447 1447 1447 1447 1447 1447 1447 1447 1447 1447 1447 1447 1448 1448 1448 1449 1449 1449 1449 1450 1450 1450 1450 1450 1451 1451 1451 1451 1451 1452 1452 1452 1452 1452 1453 1453 1453 1453 1453 1453 1453 1453 1453 1453 1452 1452 1452 1451 1451 1450 1450 1449 1449 1448
1445 1445 1445 1445 1445 1445 1445 1445 1445 1445 1446 1446 1446 1446 1446 1446 1446 1446 1446 1446 1446 1446 1446 1446 1447 1447 1447 1447 1447 1448 1448 1448 1448 1449 1449 1449 1449 1449 1450 1450 1450 1450 1450 1451 1451 1452 1452 1452 1452 1452 1452 1452 1453 1453 1453 1453 1453 1452 1452 1452 1452 1452 1451 1451 1450 1450 1449 1449 1448
1444 1444 1444 1444 1444 1444 1444 1444 1445 1445 1445 1445 1445 1445 1445 1445 1445 1445 1445 1445 1445 1445 1446 1446 1446 1446 1446 1447 1447 1447 1447 1447 1448 1448 1448 1448 1448 1449 1449 1449 1450 1450 1450 1450 1451 1451 1451 1451 1452 1452 1452 1452 1452 1452 1452 1452 1452 1452 1452 1452 1452 1451 1451 1451 1450 1450 1449 1449 1448
1443 1443 1443 1443 1443 1443 1443 1444 1444 1444 1444 1444 1444 1444 1444 1445 1445 1445 1445 1445 1445 1445 1445 1445 1445 1445 1446 1446 1446 1446 1447 1447 1447 1447 1447 1448 1448 1448 1448 1449 1449 1449 1450 1450 1450 1450 1451 1451 1451 1451 1451 1452 1452 1452 1452 1452 1452 1452 1452 1452 1451 1451 1451 1450 1450 1450 1449 1449 1448
1442 1442 1442 1442 1442 1442 1442 1443 1443 1443 1443 1443 1443 1443 1444 1444 1444 1444 1444 1444 1444 1444 1444 1444 1445 1445 1445 1445 1445 1446 1446 1446 1446 1447 1447 1447 1447 1447 1448 1448 1448 1449 1449 1449 1450 1450 1450 1450 1451 1451 1451 1451 1451 1452 1452 1452 1452 1452 1452 1451 1451 1451 1451 1450 1450 1450 1449 1449 1448
1441 1441 1441 1441 1441 1441 1441 1442 1442 1442 1442 1442 1442 1443 1443 1443 1443 1443 1443 1443 1443 1443 1443 1444 1444 1444 1444 1445 1445 1445 1445 1445 1446 1446 1446 1446 1446 1447 1447 1447 1448 1448 1449 1449 1449 1449 1450 1450 1450 1450 1451 1451 1451 1451 1451 1451 1451 1451 1451 1451 1451 1451 1450 1450 1450 1450 1449 1449 1448
1440 1440 1440 1440 1440 1440 1440 1441 1441 1441 1441 1441 1441 1442 1442 1442 1442 1442 1442 1442 1442 1443 1443 1443 1443 1443 1443 1444 1444 1444 1445 1445 1445 1445 1445 1446 1446 1446 1446 1447 1447 1448 1448 1448 1449 1449 1449 1450 1450 1450 1450 1451 1451 1451 1451 1451 1451 1451 1451 1451 1451 1451 1450 1450 1450 1450 1449 1449 1448
1438 1439 1439 1439 1439 1439 1440 1440 1440 1440 1440 1440 1440 1441 1441 1441 1441 1441 1441 1442 1442 1442 1442 1442 1442 1442 1443 1443 1443 1444 1444 1444 1444 1445 1445 1445 1445 1445 1446 1446 1446 1447 1447 1448 1448 1448 1449 1449 1450 1450 1450 1450 1450 1451 1451 1451 1451 1451 1451 1451 1451 1450 1450 1450 1450 1450 1449 1449 1448
1437 1437 1438 1438 1438 1438 1438 1439 1439 1439 1439 1440 1440 1440 1440 1440 1440 1440 1441 1441 1441 1441 1441 1441 1442 1442 1442 1442 1442 1443 1443 1443 1444 1444 1444 1444 1445 1445 1445 1445 1446 1446 1447 1447 1448 1448 1448 1449 1449 1449 1450 1450 1450 1450 1450 1451 1451 1451 1451 1451 1450 1450 1450 1450 1450 1449 1449 1449 1448
1436 1436 1436 1437 1437 1437 1437 1437 1438 1438 1438 1438 1439 1439 1439 1439 1440 1440 1440 1440 1440 1440 1440 1441 1441 1441 1441 1441 1442 1442 1442 1443 1443 1443 1443 1444 1444 1444 1445 1445 1445 1446 1446 1447 1447 1447 1448 1448 1449 1449 1449 1449 1450 1450 1450 1450 1450 1450 1450 1450 1450 1450 1450 1450 1450 1449 1449 1449 1448
1434 1435 1435 1435 1436 1436 1436 1436 1436 1437 1437 1437 1438 1438 1438 1438 1439 1439 1439 1439 1440 1440 1440 1440 1440 1440 1441 1441 1441 1441 1441 1442 1442 1442 1443 1443 1443 1443 1444 1444 1445 1445 1446 1446 1446 1447 1447 1448 1448 1448 1449 1449 1449 1450 1450 1450 1450 1450 1450 1450 1450 1450 1450 1450 1449 1449 1449 1449 1448
1433 1433 1434 1434 1435 1435 1435 1435 1435 1435 1436 1436 1437 1437 1437 1437 1438 1438 1438 1439 1439 1439 1439 1439 1440 1440 1440 1440 1440 1440 1441 1441 1441 1442 1442 1442 1443 1443 1443 1444 1444 1445 1445 1445 1446 1446 1447 1447 1447 1448 1448 1448 1449 1449 1449 1450 1450 1450 1450 1450 1450 1450 1450 1449 1449 1449 1449 1449 1448
1432 1432 1433 1433 1433 1434 1434 1434 1434 1435 1435 1435 1436 1436 1436 1436 1437 1437 1437 1438 1438 1438 1438 1439 1439 1439 1439 1440 1440 1440 1440 1440 1441 1441 1441 1442 1442 1442 1442 1443 1443 1444 1444 1445 1445 1446 1446 1446 1447 1447 1447 1448 1448 1449 1449 1449 1449 1449 1449 1449 1449 1449 1449 1449 1449 1449 1449 1449 1448
1430 1431 1431 1432 1432 1432 1433 1433 1433 1434 1434 1434 1435 1435 1435 1435 1436 1436 1436 1437 1437 1437 1438 1438 1438 1438 1439 1439 1439 1439 1440 1440 1440 1440 1441 1441 1441 1441 1442 1442 1443 1443 1444 1444 1445 1445 1445 1446 1446 1446 1447 1447 1448 1448 1448 1449 1449 1449 1449 1449 1449 1449 1449 1449 1449 1449 1449 1448 1448
1429 1430 1430 1430 1431 1431 1431 1432 1432 1432 1433 1433 1434 1434 1434 1435 1435 1435 1435 1436 1436 1436 1437 1437 1437 1437 1438 1438 1438 1439 1439 1439 1440 1440 1440 1440 1440 1441 1441 1441 1442 1442 1443 1444 1444 1445 1445 1445 1446 1446 1446 1447 1447 1448 1448 1448 1448 1449 1449 1449 1449 1449 1449 1449 1449 1449 1449 1448 1448
1427 1428 1428 1429 1430 1430 1430 1430 1431 1431 1432 1432 1432 1433 1433 1434 1434 1434 1435 1435 1435 1435 1436 1436 1436 1437 1437 1437 1437 1438 1438 1439 1439 1439 1440 1440 1440 1440 1440 1441 1441 1442 1442 1443 1443 1444 1444 1445 1445 1445 1446 1446 1447 1447 1447 1448 1448 1448 1448 1448 1448 1448 1449 1449 1449 1449 1448 1448 1448
1426 1426 1427 1427 1428 1428 1429 1429 1430 1430 1430 1431 1431 1432 1432 1432 1433 1433 1434 1434 1434 1435 1435 1435 1435 1436 1436 1436 1437 1437 1437 1438 1438 1439 1439 1439 1439 1440 1440 1440 1441 1441 1442 1442 1443 1443 1444 1444 1445 1445 1445 1446 1446 1447 1447 1447 1448 1448 1448 1448 1448 1448 1448 1448 1448 1448 1448 1448 1448
1424 1425 1425 1425 1426 1427 1427 1428 1428 1429 1429 1429 1430 1430 1431 1431 1432 1432 1432 1433 1433 1434 1434 1434 1435 1435 1435 1435 1436 1436 1437 1437 1437 1438 1438 1438 1439 1439 1439 1440 1440 1440 1441 1442 1442 1443 1443 1444 1444 1445 1445 1445 1446 1446 1447 1447 1447 1447 1448 1448 1448 1448 1448 1448 1448 1448 1448 1448 1448
1423 1423 1423 1424 1424 1425 1426 1426 1427 1427 1428 1428 1428 1429 1430 1430 1430 1431 1431 1432 1432 1433 1433 1433 1434 1434 1435 1435 1435 1435 1436 1436 1437 1437 1437 1438 1438 1438 1439 1439 1440 1440 1440 1441 1442 1442 1443 1443 1444 1444 1445 1445 1445 1446 1446 1447 1447 1447 1447 1448 1448 1448 1448 1448 1448 1448 1448 1448 1448
1422 1421 1421 1422 1422 1423 1424 1425 1425 1426 1426 1426 1427 1427 1428 1429 1429 1430 1430 1431 1431 1432 1432 1432 1433 1433 1434 1434 1434 1435 1435 1435 1436 1436 1437 1437 1437 1438 1438 1438 1439 1440 1440 1440 1441 1442 1442 1443 1443 1444 1444 1445 1445 1445 1446 1446 1447 1447 1447 1447 1448 1448 1448 1448 1448 1448 1448 1448 1448
1421 1420 1420 1420 1420 1421 1422 1423 1424 1425 1425 1425 1425 1426 1426 1427 1428 1429 1429 1430 1430 1430 1431 1431 1432 1432 1433 1433 1433 1434 1434 1435 1435 1435 1436 1436 1437 1437 1437 1438 1438 1439 1440 1440 1441 1441 1442 1442 1443 1443 1444 1444 1445 1445 1446 1446 1447 1447 1447 1447 1447 1448 1448 1448 1448 1448 1448 1448 1448
1420 1419 1419 1418 1419 1419 1420 1421 1422 1423 1424 1424 1424 1425 1425 1426 1426 1427 1428 1429 1429 1430 1430 1430 1431 1431 1431 1432 1432 1433 1433 1434 1434 1435 1435 1435 1436 1436 1437 1437 1438 1438 1439 1440 1440 1441 1441 1442 1443 1443 1444 1444 1445 1445 1445 1446 1446 1447 1447 1447 1447 1448 1448 1448 1448 1448 1448 1448 1448
1418 1418 1417 1417 1417 1417 1418 1419 1420 1421 1422 1423 1423 1423 1424 1424 1425 1426 1427 1427 1428 1428 1429 1429 1430 1430 1430 1431 1431 1432 1432 1433 1433 1434 1434 1435 1435 1435 1436 1436 1437 1438 1438 1439 1440 1440 1441 1441 1442 1443 1443 1444 1444 1445 1445 1446 1446 1446 1447 1447 1447 1447 1448 1448 1448 1448 1448 1448 1448
1417 1416 1416 1415 1415 1415 1416 1417 1418 1419 1420 1421 1422 1422 1422 1423 1424 1425 1425 1426 1426 1427 1428 1428 1429 1429 1430 1430 1430 1431 1431 1432 1433 1433 1434 1434 1435 1435 1435 1436 1436 1437 1438 1439 1439 1440 1440 1441 1442 1442 1443 1443 1444 1444 1445 1445 1446 1446 1446 1447 1447 1447 1447 1448 1448 1448 1448 1448 1448
1415 1415 1414 1414 1414 1414 1414 1415 1416 1417 1418 1420 1420 1421 1421 1422 1422 1423 1424 1425 1425 1426 1426 1427 1428 1428 1429 1429 1430 1430 1430 1431 1432 1432 1433 1433 1434 1434 1435 1435 1436 1436 1437 1438 1439 1439 1440 1440 1441 1442 1442 1443 1443 1444 1445 1445 1445 1446 1446 1446 1447 1447 1447 1447 1448 1448 1448 1448 1448
1414 1414 1413 1412 1412 1412 1413 1413 1414 1415 1416 1418 1419 1420 1420 1421 1421 1422 1423 1424 1424 1425 1425 1426 1426 1427 1428 1428 1429 1429 1430 1430 1431 1431 1432 1433 1433 1434 1434 1435 1435 1436 1437 1437 1438 1439 1439 1440 1440 1441 1442 1442 1443 1444 1444 1445 1445 1445 1446 1446 1447 1447 1447 1447 1447 1448 1448 1448 1448
1413 1412 1411 1411 1411 1411 1411 1411 1412 1413 1415 1416 1417 1418 1419 1420 1420 1421 1421 1422 1423 1424 1424 1425 1425 1426 1426 1427 1428 1428 1429 1429 1430 1430 1431 1432 1432 1433 1433 1434 1435 1435 1436 1437 1437 1438 1439 1440 1440 1441 1441 1442 1443 1443 1444 1444 1445 1445 1446 1446 1446 1447 1447 1447 1447 1447 1448 1448 1448
1411 1411 1410 1410 1409 1409 1409 1410 1410 1411 1412 1414 1415 1417 1418 1418 1419 1420 1420 1421 1422 1422 1423 1424 1424 1425 1426 1426 1427 1427 1428 1429 1429 1430 1430 1431 1431 1432 1433 1433 1434 1435 1435 1436 1437 1437 1438 1439 1440 1440 1441 1441 1442 1443 1443 1444 1445 1445 1445 1446 1446 1446 1447 1447 1447 1447 1447 1448 1448
1410 1409 1409 1408 1408 1408 1408 1408 1408 1409 1410 1412 1414 1415 1416 1417 1418 1418 1419 1420 1420 1421 1422 1423 1423 1424 1425 1425 1426 1426 1427 1428 1428 1429 1429 1430 1430 1431 1432 1432 1433 1434 1435 1435 1436 1437 1438 1438 1439 1440 1440 1441 1442 1442 1443 1443 1444 1445 1445 1445 1446 1446 1446 1447 1447 1447 1447 1447 1448
1408 1408 1407 1407 1406 1406 1406 1406 1407 1407 1409 1410 1412 1413 1415 1415 1416 1417 1418 1419 1420 1420 1421 1422 1422 1423 1424 1424 1425 1425 1426 1427 1427 1428 1429 1429 1430 1430 1431 1432 1432 1433 1434 1435 1435 1436 1437 1438 1439 1439 1440 1440 1441 1442 1442 1443 1444 1444 1445 1445 1445 1446 1446 1446 1446 1447 1447 1447 1447
1406 1406 1405 1405 1405 1405 1405 1405 1405 1406 1407 1408 1410 1411 1413 1414 1415 1416 1416 1417 1418 1419 1420 1420 1421 1422 1423 1423 1424 1425 1425 1426 1426 1427 1428 1428 1429 1430 1430 1431 1432 1432 1433 1434 1435 1435 1436 1437 1438 1439 1439 1440 1441 1441 1442 1443 1443 1444 1444 1445 1445 1445 1446 1446 1446 1446 1447 1447 1447